Weather observations for the past three days for
Houston Intercontinental Airport
Imperial (Metric)
Date Time (cdt) Wind (mph) Vis. (mi.) Weather Sky Cond. Temperature (ºF) Relative Humidity Wind Chill (°F) Heat Index (°F) Pressure Precipitation (in)
Air Dwpt 6 hour altimeter (in) sea level (mb) 1 hr 3 hr 6 hr
Max. Min.
15 20:53 SE 13 10.00 Fair CLR 84 71.1 65% 89 29.86 1011.0
15 19:53 SE 14 10.00 A Few Clouds FEW050 87.1 69.1 55% 91 29.85 1010.8
15 18:53 SE 13 10.00 A Few Clouds FEW050 89.1 70 93 89.1 53% 94 29.85 1010.7
15 17:53 SE 18 10.00 A Few Clouds FEW060 91 69.1 49% 96 29.85 1010.6
15 16:53 SE 15 10.00 A Few Clouds FEW060 93 66.9 42% 97 29.86 1011.0
15 15:53 SE 14 G 22 10.00 Partly Cloudy SCT055 93 69.1 46% 98 29.87 1011.3
15 14:53 SE 8 G 20 10.00 Partly Cloudy SCT055 SCT080 91.9 70 49% 98 29.89 1011.9
15 13:53 E 12 10.00 Partly Cloudy SCT048 SCT075 91 73 56% 100 29.9 1012.5
15 12:53 SE 8 G 16 10.00 Partly Cloudy SCT045 91 72 91 77 54% 99 29.93 1013.3
15 11:53 SE 6 10.00 Partly Cloudy SCT042 88 71.1 57% 94 29.94 1013.7
15 10:53 Vrbl 3 10.00 Partly Cloudy SCT035 SCT044 88 72 59% 95 29.95 1014.0
15 09:53 Vrbl 3 10.00 A Few Clouds FEW025 87.1 73 63% 95 29.96 1014.3
15 08:53 Calm 10.00 A Few Clouds FEW018 FEW050 84 73.9 72% 91 29.96 1014.3
15 07:53 N 3 8.00 A Few Clouds FEW020 FEW050 81 73.9 79% 86 29.94 1013.7
15 06:53 N 3 10.00 A Few Clouds FEW060 75.9 73 82 75 91% 76 29.92 1013.1
15 05:53 N 5 10.00 Fair CLR 75 72 90% 74 29.91 1012.5
15 04:53 Calm 10.00 Fair CLR 75 73 94% 73 29.9 1012.4
15 03:53 Calm 10.00 Fair CLR 75.9 73 91% 76 29.9 1012.4
15 02:53 Calm 10.00 Fair CLR 77 73 88% 78 29.91 1012.7
15 01:53 S 3 10.00 Fair CLR 81 73 77% 86 29.92 1013.2
15 00:53 S 3 10.00 A Few Clouds FEW060 82 73 91 79 74% 87 29.94 1013.6
14 23:53 S 3 10.00 A Few Clouds FEW060 82 73 74% 87 29.94 1013.5
14 22:53 S 6 10.00 A Few Clouds FEW060 81 69.1 67% 84 29.93 1013.2
14 21:53 SE 7 10.00 A Few Clouds FEW065 81 70 69% 84 29.91 1012.8
14 20:53 E 10 10.00 A Few Clouds FEW065 84 69.1 61% 88 29.89 1012.2
14 19:53 E 10 10.00 A Few Clouds FEW065 89.1 66.9 48% 92 29.88 1011.6
14 18:53 NE 6 10.00 A Few Clouds FEW065 91 70 95 90 50% 97 29.86 1011.2
14 17:53 NE 7 10.00 A Few Clouds FEW065 93.9 66.9 41% 98 29.86 1011.0
14 16:53 N 7 10.00 A Few Clouds FEW065 93.9 66.9 41% 98 29.87 1011.5
14 15:53 N 6 10.00 A Few Clouds FEW060 91.9 66 43% 95 29.89 1012.1
14 14:53 NE 6 10.00 A Few Clouds FEW055 93.9 68 43% 98 29.9 1012.5
14 13:53 NE 6 10.00 A Few Clouds FEW055 91.9 68 46% 96 29.92 1013.0
14 12:53 Calm 10.00 Partly Cloudy SCT045 91 68 91.9 78.1 47% 95 29.95 1014.0
14 11:53 NE 7 10.00 Partly Cloudy SCT040 90 71.1 54% 96 29.96 1014.3
14 10:53 Vrbl 3 10.00 Partly Cloudy SCT035 88 72 59% 95 29.96 1014.5
14 09:53 NE 6 10.00 Partly Cloudy SCT025 87.1 75.9 70% 98 29.96 1014.4
14 08:53 NE 3 10.00 A Few Clouds FEW020 FEW150 84 75.9 77% 93 29.97 1014.8
14 07:53 NE 6 7.00 A Few Clouds FEW020 FEW055 81 75.9 85% 87 29.97 1014.6
14 06:53 N 3 5.00 Fog/Mist FEW020 FEW055 78.1 75 79 75.9 90% 81 29.95 1014.0
14 05:53 N 3 7.00 A Few Clouds FEW025 FEW055 77 75 94% 78 29.93 1013.5
14 04:53 N 3 7.00 A Few Clouds FEW035 FEW050 77 75 94% 78 29.92 1013.0
14 03:53 NE 5 10.00 A Few Clouds FEW035 FEW050 77 75 94% 78 29.92 1012.9
14 02:53 Calm 10.00 A Few Clouds FEW050 77 75 94% 78 29.91 1012.7
14 01:53 Calm 10.00 A Few Clouds FEW040 78.1 75 90% 81 29.92 1013.0
14 00:53 Calm 10.00 A Few Clouds FEW035 79 75 91 78.1 88% 83 29.92 1012.9
13 23:53 Calm 10.00 Fair CLR 80.1 75 85% 85 29.92 1012.9
13 22:53 S 6 10.00 A Few Clouds FEW060 82 75 79% 89 29.9 1012.5
13 21:53 S 5 10.00 A Few Clouds FEW060 84 75 74% 92 29.9 1012.2
13 20:53 SE 9 10.00 Partly Cloudy SCT055 86 75 70% 95 29.89 1012.0
13 19:53 NE 9 10.00 Mostly Cloudy BKN055 89.1 72 57% 96 29.88 1011.8
13 18:53 E 8 10.00 Partly Cloudy SCT050 91 73 93.9 90 56% 100 29.87 1011.5
13 17:53 NE 12 G 18 10.00 Partly Cloudy SCT050 91.9 73.9 56% 102 29.87 1011.5
13 16:53 E 12 10.00 Partly Cloudy SCT049 91 73 56% 100 29.88 1011.8
13 15:53 SE 8 10.00 Partly Cloudy SCT048 93.9 72 49% 102 29.89 1012.0
13 14:53 E 5 10.00 Partly Cloudy SCT045 93.9 73 51% 103 29.9 1012.5
13 13:53 E 6 10.00 Partly Cloudy SCT040 91.9 73.9 56% 102 29.92 1013.2
13 12:53 Calm 10.00 Mostly Cloudy BKN035 90 73.9 91 77 59% 99 29.94 1013.8
13 11:53 Vrbl 3 10.00 Partly Cloudy SCT030 SCT080 89.1 75 63% 99 29.95 1014.1
13 10:53 NE 7 10.00 Mostly Cloudy SCT026 BKN080 86 75 70% 95 29.96 1014.3
13 09:53 E 6 10.00 Mostly Cloudy FEW025 BKN075 84 73.9 72% 91 29.96 1014.3
13 08:53 E 5 10.00 Mostly Cloudy FEW025 BKN075 81 73 77% 86 29.95 1014.1
13 07:53 NE 6 10.00 Partly Cloudy FEW020 SCT080 79 72 79% 82 29.94 1013.6
13 06:53 NE 3 7.00 Partly Cloudy FEW020 SCT085 77 71.1 78.1 75.9 82% 79 29.92 1012.9
13 05:53 NE 3 7.00 Mostly Cloudy BKN030 BKN075 77 71.1 82% 79 29.9 1012.5
13 04:53 N 5 7.00 A Few Clouds FEW026 FEW070 77 73.9 90% 78 29.89 1012.1
13 03:53 N 3 7.00 Fair CLR 77 75 94% 78 29.88 1011.5
13 02:53 Calm 7.00 Fair CLR 77 75.9 96% 78 29.88 1011.6
13 01:53 N 5 10.00 Fair CLR 78.1 75 90% 81 29.89 1012.1
13 00:53 N 5 10.00 Fair CLR 78.1 75 84.9 78.1 90% 81 29.91 1012.7
12 23:53 NE 6 10.00 Fair CLR 78.1 75 90% 81 29.92 1013.1
12 22:53 Calm 10.00 A Few Clouds FEW050 78.1 75 90% 81 29.92 1013.0
12 21:53 Calm 10.00 Fair CLR 78.1 75 90% 81 29.9 1012.4
Date Time (cdt) Wind (mph) Vis. (mi.) Weather Sky Cond. Air Dwpt Max. Min. Relative Humidity Wind Chill (°F) Heat Index (°F) altimeter (in) sea level (mb) 1 hr 3 hr 6 hr
6 hour
Temperature (ºF) Pressure Precipitation (in)